Hastings, NE

2:05 PM CDT on September 21, 2017 (GMT -0500)
Hastings Municipal

Weather History for KHSI - February, 2012

Change the Weather History Date:

Thursday, February 23, 2012

  Actual Average Record
Temperature  
Mean Temperature 36 °F 32 °F  
Max Temperature 42 °F 42 °F 75 °F (1918)
Min Temperature 30 °F 22 °F -7 °F (1910)
Degree Days  
Heating Degree Days 29 33  
Month to date heating degree days 829 822  
Since 1 July heating degree days 4191 4471  
Cooling Degree Days 0 0  
Month to date cooling degree days 0 0  
Year to date cooling degree days 0 0  
Moisture  
Dew Point 28 °F    
Average Humidity 71    
Maximum Humidity 86    
Minimum Humidity 55    
Precipitation  
Precipitation 0.00 in 0.02 in 0.65 in (1914)
Month to date precipitation 1.63 0.38  
Year to date precipitation 1.77 0.79  
Snow  
Snow 0.00 in 0.20 in 9.00 in (1994)
Month to date snowfall 11.4 5.6  
Since 1 July snowfall 22.5 21.5  
Snow Depth 0.00 in    
Sea Level Pressure  
Sea Level Pressure 29.58 in    
Wind  
Wind Speed 21 mph (NNW)    
Max Wind Speed 43 mph    
Max Gust Speed 52 mph    
Visibility 10 miles    
Events      
T = Trace of Precipitation, MM = Missing Value Source: NWS Daily Summary

Daily Weather History Graph

Daily Weather History Graph

Search for Another Location

Airport or City:

Trip Planner

Search our weather history database for the weather conditions in past years. The results will help you decide how hot, cold, wet, or windy it might be!

Date:

Astronomy

Feb. 23, 2012 Rise Set
Actual Time 7:17 AM CST 6:17 PM CST
Civil Twilight 6:49 AM CST 6:45 PM CST
Nautical Twilight 6:17 AM CST 7:17 PM CST
Astronomical Twilight 5:46 AM CST 7:48 PM CST
Moon 7:43 AM CST (2/23) 8:25 PM CST (2/23)
Length of Visible Light 11h 55m
Length of Day
11h 00m
Waxing Crescent, 3% of the Moon is Illuminated
Feb 23
Waxing Crescent
Feb 29
First Quarter
Mar 8
Full
Mar 14
Last Quarter
Mar 22
New

Hourly Weather History & Observations

Time (CST) Temp. Windchill Dew Point Humidity Pressure Visibility Wind Dir Wind Speed Gust Speed Precip Events Conditions
12:53 AM 42.1 °F 37.1 °F 36.0 °F 79% 29.30 in 10.0 mi East 8.1 mph - N/A   Mostly Cloudy
1:53 AM 42.1 °F 40.2 °F 36.0 °F 79% 29.28 in 10.0 mi ESE 3.5 mph - N/A   Overcast
2:53 AM 37.9 °F 30.9 °F 34.0 °F 86% 29.28 in 10.0 mi NNW 10.4 mph - N/A   Scattered Clouds
3:53 AM 37.0 °F 30.4 °F 34.0 °F 89% 29.27 in 10.0 mi NNW 9.2 mph - N/A   Clear
4:53 AM 37.0 °F 28.9 °F 34.0 °F 89% 29.31 in 10.0 mi NNW 12.7 mph - N/A   Clear
5:53 AM 37.9 °F 30.5 °F 34.0 °F 86% 29.32 in 10.0 mi NNW 11.5 mph - N/A   Mostly Cloudy
6:53 AM 39.9 °F 32.5 °F 35.1 °F 83% 29.35 in 10.0 mi NNW 12.7 mph - N/A   Mostly Cloudy
7:53 AM 37.9 °F 31.5 °F 34.0 °F 86% 29.42 in 10.0 mi WNW 9.2 mph - N/A   Clear
8:53 AM 39.9 °F 30.8 °F 33.1 °F 77% 29.46 in 10.0 mi NW 18.4 mph 28.8 mph N/A   Scattered Clouds
9:53 AM 39.9 °F 29.2 °F 30.0 °F 68% 29.49 in 10.0 mi NW 25.3 mph 38.0 mph N/A   Mostly Cloudy
10:53 AM 39.9 °F 28.2 °F 28.0 °F 63% 29.51 in 10.0 mi NW 31.1 mph 43.7 mph N/A   Mostly Cloudy
11:53 AM 41.0 °F 29.0 °F 27.0 °F 57% 29.55 in 10.0 mi NW 35.7 mph 43.7 mph N/A   Overcast
12:53 PM 41.0 °F 29.5 °F 27.0 °F 57% 29.59 in 10.0 mi NW 32.2 mph 44.9 mph N/A   Overcast
1:53 PM 39.9 °F 27.5 °F 26.1 °F 58% 29.61 in 10.0 mi NNW 35.7 mph 50.6 mph N/A   Overcast
2:53 PM 39.0 °F 26.1 °F 27.0 °F 62% 29.65 in 10.0 mi NNW 36.8 mph 46.0 mph N/A   Overcast
3:53 PM 37.9 °F 24.6 °F 26.1 °F 62% 29.70 in 10.0 mi NNW 36.8 mph 47.2 mph N/A   Overcast
4:53 PM 37.9 °F 26.1 °F 24.1 °F 57% 29.74 in 10.0 mi NNW 27.6 mph 40.3 mph N/A   Overcast
5:53 PM 37.0 °F 26.2 °F 25.0 °F 62% 29.78 in 10.0 mi NNW 21.9 mph 33.4 mph N/A   Mostly Cloudy
6:53 PM 35.1 °F 23.5 °F 21.9 °F 59% 29.81 in 10.0 mi NNW 21.9 mph - N/A   Clear
7:53 PM 34.0 °F 22.1 °F 21.9 °F 61% 29.85 in 10.0 mi NNW 21.9 mph 29.9 mph N/A   Clear
8:53 PM 33.1 °F 22.2 °F 21.9 °F 64% 29.88 in 10.0 mi NNW 17.3 mph 26.5 mph N/A   Clear
9:53 PM 32.0 °F 20.8 °F 21.9 °F 66% 29.91 in 10.0 mi NNW 17.3 mph - N/A   Clear
10:53 PM 30.9 °F 18.7 °F 21.9 °F 69% 29.94 in 10.0 mi NNW 19.6 mph 24.2 mph N/A   Clear
11:53 PM 30.0 °F 18.7 °F 21.9 °F 72% 29.96 in 10.0 mi NW 16.1 mph - N/A   Clear